User: anonymous   Login
Location: Howell Woods
(35.3600°N, 78.2900°W)
Time: 17:59:42
(UTC-05:00)
Language:

ISS - Orbit

View from above orbital plane
View from above orbital plane
View from above satellite
View from above satellite

Ground track
Ground track

The orbit data is extracted from the following two-line orbital elements,

1 25544U 98067A   22028.85546212  .00007118  00000-0  13400-3 0  9995
2 25544  51.6447 306.5909 0006818  72.1061  40.7231 15.49683806323578
Epoch (UTC): 28 January 2022 20:31:51
Eccentricity: 0.0006818
inclination: 51.6447°
perigee height: 413 km
apogee height: 422 km
right ascension of ascending node: 306.5909°
argument of perigee: 72.1061°
revolutions per day: 15.49683806
mean anomaly at epoch: 40.7231°
orbit number at epoch: 32357

The dashed part of the orbit path shows where the satellite is in the earth's shadow,  

DLR